Change the Weather History Date:

Wednesday, March 6, 2013

  Actual Average (KMWA) Record (KMWA)
Temperature  
Mean Temperature 34 °F -  
Max Temperature 37 °F 50 °F 75 °F (2009)
Min Temperature 32 °F 28 °F -8 °F (1978)
Degree Days  
Heating Degree Days 30    
Moisture  
Dew Point 27 °F    
Average Humidity 76    
Maximum Humidity 87    
Minimum Humidity 65    
Precipitation  
Precipitation 0.00 in - - ()
Sea Level Pressure  
Sea Level Pressure 30.25 in    
Wind  
Wind Speed 15 mph (NNW)    
Max Wind Speed 25 mph    
Max Gust Speed 37 mph    
Visibility 10 miles    
Events      
Averages and records for this station are not official NWS values.
T = Trace of Precipitation, MM = Missing Value Source: NWS Daily Summary

Daily Weather History Graph

Daily Weather History Graph

Search for Another Location

Airport or City:

Trip Planner

Search our weather history database for the weather conditions in past years. The results will help you decide how hot, cold, wet, or windy it might be!

Date:

Astronomy

Mar. 06, 2013 Rise Set
Actual Time 6:18 AM CST 5:53 PM CST
Civil Twilight 5:52 AM CST 6:19 PM CST
Nautical Twilight 5:21 AM CST 6:49 PM CST
Astronomical Twilight 4:51 AM CST 7:20 PM CST
Moon 2:22 AM CST (3/6) 12:39 PM CST (3/6)
Length of Visible Light 12h 27m
Length of Day
11h 34m
Waning Crescent, 29% of the Moon is Illuminated
Mar 6
Waning Crescent
Mar 11
New
Mar 19
First Quarter
Mar 27
Full
Apr 2
Last Quarter

Hourly Weather History & Observations

Time (CST) Temp. Windchill Dew Point Humidity Pressure Visibility Wind Dir Wind Speed Gust Speed Precip Events Conditions
12:15 AM 32.0 °F 19.8 °F 26.6 °F 80% 30.03 in 10.0 mi WNW 20.7 mph 27.6 mph N/A   Overcast
12:35 AM 32.0 °F 20.1 °F 26.6 °F 80% 30.03 in 10.0 mi NW 19.6 mph 31.1 mph N/A   Overcast
12:55 AM 32.0 °F 20.1 °F 24.8 °F 75% 30.04 in 10.0 mi WNW 19.6 mph 36.8 mph N/A   Overcast
1:15 AM 32.0 °F 19.2 °F 24.8 °F 75% 30.05 in 10.0 mi NW 23.0 mph 31.1 mph N/A   Overcast
1:35 AM 32.0 °F 19.2 °F 24.8 °F 75% 30.05 in 10.0 mi NW 23.0 mph 33.4 mph N/A   Overcast
1:55 AM 32.0 °F 19.8 °F 24.8 °F 75% 30.06 in 10.0 mi NW 20.7 mph 28.8 mph N/A   Overcast
2:15 AM 32.0 °F 20.1 °F 24.8 °F 75% 30.06 in 10.0 mi NW 19.6 mph 29.9 mph N/A   Overcast
2:35 AM 32.0 °F 20.8 °F 24.8 °F 75% 30.07 in 10.0 mi NW 17.3 mph 31.1 mph N/A   Overcast
2:55 AM 32.0 °F 20.8 °F 24.8 °F 75% 30.08 in 10.0 mi WNW 17.3 mph 26.5 mph N/A   Overcast
3:15 AM 32.0 °F 18.6 °F 24.8 °F 75% 30.08 in 10.0 mi NW 25.3 mph 31.1 mph N/A   Overcast
3:35 AM 32.0 °F 21.2 °F 26.6 °F 80% 30.10 in 10.0 mi NW 16.1 mph 27.6 mph N/A   Overcast
3:55 AM 32.0 °F 19.8 °F 26.6 °F 80% 30.10 in 10.0 mi NW 20.7 mph 31.1 mph N/A   Overcast
4:15 AM 32.0 °F 21.2 °F 26.6 °F 80% 30.11 in 10.0 mi NW 16.1 mph 27.6 mph N/A   Overcast
4:35 AM 32.0 °F 20.5 °F 26.6 °F 80% 30.13 in 10.0 mi NW 18.4 mph 28.8 mph N/A   Overcast
4:55 AM 32.0 °F 22.1 °F 24.8 °F 75% 30.14 in 10.0 mi NW 13.8 mph 25.3 mph N/A   Overcast
5:15 AM 32.0 °F 20.8 °F 26.6 °F 80% 30.15 in 10.0 mi NW 17.3 mph 25.3 mph N/A   Overcast
5:35 AM 32.0 °F 20.8 °F 26.6 °F 80% 30.17 in 10.0 mi NW 17.3 mph 25.3 mph N/A   Mostly Cloudy
5:55 AM 32.0 °F 21.6 °F 26.6 °F 80% 30.18 in 10.0 mi NW 15.0 mph 23.0 mph N/A   Overcast
6:15 AM 32.0 °F 22.5 °F 26.6 °F 80% 30.19 in 10.0 mi NW 12.7 mph 25.3 mph N/A   Overcast
6:35 AM 32.0 °F 22.1 °F 26.6 °F 80% 30.20 in 10.0 mi NW 13.8 mph 23.0 mph N/A   Overcast
6:55 AM 32.0 °F 20.8 °F 24.8 °F 75% 30.21 in 10.0 mi NW 17.3 mph 24.2 mph N/A   Overcast
7:15 AM 32.0 °F 22.1 °F 26.6 °F 80% 30.22 in 10.0 mi NW 13.8 mph 21.9 mph N/A   Overcast
7:35 AM 32.0 °F 22.5 °F 26.6 °F 80% 30.23 in 10.0 mi NW 12.7 mph 21.9 mph N/A   Overcast
7:55 AM 32.0 °F 21.2 °F 26.6 °F 80% 30.25 in 10.0 mi NW 16.1 mph 25.3 mph N/A   Overcast
8:15 AM 32.0 °F 20.8 °F 26.6 °F 80% 30.26 in 10.0 mi NW 17.3 mph 26.5 mph N/A   Overcast
8:35 AM 32.0 °F 20.5 °F 26.6 °F 80% 30.26 in 10.0 mi NW 18.4 mph 25.3 mph N/A   Overcast
8:55 AM 32.0 °F 21.2 °F 26.6 °F 80% 30.28 in 10.0 mi NW 16.1 mph 24.2 mph N/A   Overcast
9:15 AM 32.0 °F 22.5 °F 26.6 °F 80% 30.29 in 10.0 mi NW 12.7 mph 23.0 mph N/A   Overcast
9:35 AM 32.0 °F 22.5 °F 26.6 °F 80% 30.29 in 10.0 mi NW 12.7 mph 24.2 mph N/A   Overcast
9:55 AM 32.0 °F 22.5 °F 26.6 °F 80% 30.30 in 10.0 mi NW 12.7 mph 23.0 mph N/A   Overcast
10:15 AM 33.8 °F 23.2 °F 26.6 °F 75% 30.31 in 10.0 mi NNW 17.3 mph - N/A   Overcast
10:35 AM 33.8 °F 24.8 °F 26.6 °F 75% 30.31 in 10.0 mi NNW 12.7 mph 19.6 mph N/A   Overcast
10:55 AM 33.8 °F 25.8 °F 26.6 °F 75% 30.31 in 10.0 mi NW 10.4 mph 20.7 mph N/A   Overcast
11:15 AM 33.8 °F 24.3 °F 26.6 °F 75% 30.32 in 10.0 mi NNW 13.8 mph 19.6 mph N/A   Overcast
11:35 AM 35.6 °F 25.2 °F 26.6 °F 70% 30.32 in 10.0 mi NNW 18.4 mph 25.3 mph N/A   Mostly Cloudy
11:55 AM 35.6 °F 27.5 °F 26.6 °F 70% 30.32 in 10.0 mi NNW 11.5 mph 24.2 mph N/A   Mostly Cloudy
12:15 PM 35.6 °F 25.5 °F 26.6 °F 70% 30.31 in 10.0 mi WNW 17.3 mph 20.7 mph N/A   Overcast
12:35 PM 35.6 °F 26.2 °F 26.6 °F 70% 30.31 in 10.0 mi WNW 15.0 mph - N/A   Overcast
12:55 PM 35.6 °F 26.6 °F 26.6 °F 70% 30.31 in 10.0 mi NNW 13.8 mph 18.4 mph N/A   Overcast
1:15 PM 37.4 °F 29.3 °F 28.4 °F 70% 30.30 in 10.0 mi NNW 12.7 mph - N/A   Overcast
1:35 PM 37.4 °F 28.5 °F 26.6 °F 65% 30.30 in 10.0 mi NNW 15.0 mph - N/A   Mostly Cloudy
1:55 PM 37.4 °F 30.3 °F 26.6 °F 65% 30.30 in 10.0 mi NW 10.4 mph - N/A   Mostly Cloudy
2:15 PM 35.6 °F 29.2 °F 28.4 °F 75% 30.30 in 10.0 mi NW 8.1 mph - N/A   Overcast
2:35 PM 35.6 °F 26.6 °F 26.6 °F 70% 30.31 in 10.0 mi NW 13.8 mph 19.6 mph N/A   Overcast
2:55 PM 35.6 °F 28.0 °F 28.4 °F 75% 30.31 in 10.0 mi NW 10.4 mph 18.4 mph N/A   Overcast
3:15 PM 35.6 °F 27.1 °F 26.6 °F 70% 30.31 in 10.0 mi WNW 12.7 mph - N/A   Overcast
3:35 PM 35.6 °F 28.0 °F 26.6 °F 70% 30.32 in 10.0 mi NW 10.4 mph - N/A   Overcast
3:55 PM 35.6 °F 27.1 °F 26.6 °F 70% 30.32 in 10.0 mi NW 12.7 mph - N/A   Overcast
4:15 PM 35.6 °F 28.0 °F 26.6 °F 70% 30.32 in 10.0 mi WNW 10.4 mph - N/A   Overcast
4:35 PM 35.6 °F 28.6 °F 28.4 °F 75% 30.32 in 10.0 mi NW 9.2 mph - N/A   Overcast
4:55 PM 35.6 °F 28.6 °F 28.4 °F 75% 30.32 in 10.0 mi NW 9.2 mph - N/A   Overcast
5:15 PM 35.6 °F 29.2 °F 26.6 °F 70% 30.33 in 10.0 mi NW 8.1 mph - N/A   Overcast
5:35 PM 35.6 °F 29.2 °F 26.6 °F 70% 30.33 in 10.0 mi North 8.1 mph - N/A   Overcast
5:55 PM 35.6 °F 30.7 °F 26.6 °F 70% 30.33 in 10.0 mi North 5.8 mph - N/A   Overcast
6:15 PM 35.6 °F 31.7 °F 26.6 °F 70% 30.33 in 10.0 mi North 4.6 mph - N/A   Overcast
6:35 PM 33.8 °F 28.6 °F 26.6 °F 75% 30.34 in 10.0 mi North 5.8 mph - N/A   Overcast
6:55 PM 33.8 °F 28.6 °F 28.4 °F 81% 30.34 in 10.0 mi NE 5.8 mph - N/A   Overcast
7:15 PM 33.8 °F 27.7 °F 28.4 °F 81% 30.34 in 10.0 mi NNE 6.9 mph - N/A   Overcast
7:35 PM 33.8 °F 27.0 °F 28.4 °F 81% 30.34 in 10.0 mi NNE 8.1 mph - N/A   Overcast
7:55 PM 32.0 °F 26.4 °F 28.4 °F 87% 30.34 in 10.0 mi NNE 5.8 mph - N/A   Overcast
8:15 PM 32.0 °F 26.4 °F 26.6 °F 80% 30.34 in 10.0 mi NNE 5.8 mph - N/A   Overcast
8:35 PM 32.0 °F 24.8 °F 26.6 °F 80% 30.34 in 10.0 mi NNE 8.1 mph - N/A   Overcast
8:55 PM 32.0 °F 25.6 °F 26.6 °F 80% 30.35 in 10.0 mi NNE 6.9 mph - N/A   Overcast
9:15 PM 32.0 °F 25.6 °F 26.6 °F 80% 30.35 in 10.0 mi NNE 6.9 mph - N/A   Overcast
9:35 PM 32.0 °F 25.6 °F 26.6 °F 80% 30.34 in 10.0 mi NNE 6.9 mph - N/A   Overcast
9:55 PM 32.0 °F 25.6 °F 26.6 °F 80% 30.34 in 10.0 mi NNE 6.9 mph - N/A   Overcast
10:15 PM 32.0 °F 28.7 °F 26.6 °F 80% 30.34 in 10.0 mi NNE 3.5 mph - N/A   Overcast
10:35 PM 32.0 °F - 26.6 °F 80% 30.35 in 10.0 mi Calm Calm - N/A   Overcast
10:55 PM 32.0 °F - 26.6 °F 80% 30.34 in 10.0 mi Calm Calm - N/A   Overcast
11:15 PM 32.0 °F - 28.4 °F 87% 30.35 in 10.0 mi Calm Calm - N/A   Overcast
11:35 PM 32.0 °F 27.5 °F 26.6 °F 80% 30.34 in 10.0 mi NNE 4.6 mph - N/A   Overcast
11:55 PM 32.0 °F 25.6 °F 26.6 °F 80% 30.34 in 10.0 mi NNE 6.9 mph - N/A   Overcast